Location: Days
(41.3591°N, 106.7339°W)
Time: 20:17:18
(UTC+00:00)

RS-15 - Pass Details

Date: 04 July 2022
Orbit: 1881 x 2163 km, 64.8° (Epoch: 15 August)

Event Time Altitude Azimuth Distance (km) Brightness Sun altitude
Rises 06:30:04 0° 326° (NW) 5,698 11.5 -25.1°
Reaches altitude 10° 06:33:32 10° 326° (NW) 4,688 10.9 -25.2°
Maximum altitude 06:45:54 83° 241° (WSW) 2,140 8.1 -25.5°
Enters shadow 06:51:55 37° 158° (SSE) 2,939 8.4 -25.6°
